TimeCDT,TemperatureF,Dew PointF,Humidity,Sea Level PressureIn,VisibilityMPH,Wind Direction,Wind SpeedMPH,Gust SpeedMPH,PrecipitationIn,Events,Conditions,WindDirDegrees,DateUTC
12:15 AM,41.0,30.2,65,30.04,10.0,West,13.8,26.5,N/A,,Mostly Cloudy,260,2012-10-05 05:15:00
12:35 AM,39.2,30.2,70,30.04,10.0,West,15.0,21.9,N/A,,Mostly Cloudy,260,2012-10-05 05:35:00
1:15 AM,39.2,28.4,65,30.04,10.0,West,16.1,29.9,N/A,,Scattered Clouds,270,2012-10-05 06:15:00
1:35 AM,37.4,28.4,70,30.04,10.0,West,15.0,20.7,N/A,,Scattered Clouds,280,2012-10-05 06:35:00
1:55 AM,37.4,28.4,70,30.04,10.0,West,15.0,23.0,N/A,,Scattered Clouds,280,2012-10-05 06:55:00
2:15 AM,37.4,28.4,70,30.04,10.0,West,13.8,18.4,N/A,,Mostly Cloudy,270,2012-10-05 07:15:00
2:35 AM,35.6,28.4,75,30.04,10.0,West,9.2,16.1,N/A,,Mostly Cloudy,260,2012-10-05 07:35:00
2:55 AM,37.4,28.4,70,30.04,10.0,West,10.4,-,N/A,,Overcast,260,2012-10-05 07:55:00
3:15 AM,37.4,30.2,75,30.04,10.0,WSW,9.2,-,N/A,,Overcast,250,2012-10-05 08:15:00
3:35 AM,37.4,30.2,75,30.03,10.0,West,9.2,16.1,N/A,,Overcast,260,2012-10-05 08:35:00
3:55 AM,37.4,28.4,70,30.03,10.0,West,9.2,-,N/A,,Overcast,260,2012-10-05 08:55:00
4:15 AM,37.4,30.2,75,30.02,10.0,West,12.7,17.3,N/A,,Overcast,270,2012-10-05 09:15:00
4:35 AM,35.6,28.4,75,30.03,10.0,West,17.3,23.0,N/A,,Scattered Clouds,260,2012-10-05 09:35:00
4:55 AM,37.4,28.4,70,30.03,10.0,West,17.3,23.0,N/A,,Mostly Cloudy,270,2012-10-05 09:55:00
5:15 AM,35.6,28.4,75,30.03,10.0,West,15.0,23.0,N/A,,Mostly Cloudy,270,2012-10-05 10:15:00
5:35 AM,35.6,28.4,75,30.02,10.0,West,11.5,21.9,N/A,,Mostly Cloudy,260,2012-10-05 10:35:00
5:45 AM,37.4,26.6,65,30.02,10.0,West,19.6,25.3,N/A,,Mostly Cloudy,270,2012-10-05 10:45:00
6:50 AM,37.4,28.4,70,30.02,10.0,West,10.4,17.3,N/A,,Overcast,260,2012-10-05 11:50:00
7:50 AM,37.4,28.4,70,30.02,10.0,West,15.0,23.0,N/A,,Overcast,260,2012-10-05 12:50:00
8:45 AM,39.2,26.6,61,30.01,10.0,West,18.4,25.3,N/A,,Scattered Clouds,270,2012-10-05 13:45:00
9:55 AM,41.0,26.6,57,30.01,10.0,West,17.3,25.3,N/A,,Scattered Clouds,270,2012-10-05 14:55:00
11:45 AM,44.6,26.6,49,30.01,10.0,WSW,18.4,25.3,N/A,,Scattered Clouds,240,2012-10-05 16:45:00
12:45 PM,46.4,26.6,46,29.99,10.0,West,17.3,27.6,N/A,,Mostly Cloudy,280,2012-10-05 17:45:00
1:45 PM,46.4,26.6,46,29.98,10.0,West,20.7,27.6,N/A,,Mostly Cloudy,280,2012-10-05 18:45:00
2:45 PM,46.4,24.8,43,29.98,10.0,West,21.9,28.8,N/A,,Mostly Cloudy,280,2012-10-05 19:45:00
3:45 PM,46.4,24.8,43,29.98,10.0,West,19.6,-,N/A,,Mostly Cloudy,270,2012-10-05 20:45:00
4:45 PM,44.6,24.8,46,29.99,10.0,West,21.9,26.5,N/A,,Overcast,270,2012-10-05 21:45:00
5:45 PM,42.8,24.8,49,29.99,10.0,WNW,16.1,27.6,N/A,,Overcast,290,2012-10-05 22:45:00
6:45 PM,39.2,26.6,61,30.01,10.0,WNW,16.1,21.9,N/A,,Overcast,290,2012-10-05 23:45:00
7:50 PM,39.2,24.8,56,30.02,10.0,West,17.3,25.3,N/A,,Overcast,270,2012-10-06 00:50:00
8:45 PM,37.4,24.8,60,30.02,10.0,West,17.3,24.2,N/A,,Overcast,280,2012-10-06 01:45:00
9:45 PM,37.4,24.8,60,30.01,10.0,West,16.1,23.0,N/A,,Overcast,270,2012-10-06 02:45:00
10:15 PM,35.6,26.6,70,30.01,10.0,West,11.5,24.2,N/A,,Overcast,270,2012-10-06 03:15:00
10:35 PM,35.6,26.6,70,30.01,10.0,West,13.8,21.9,N/A,,Overcast,270,2012-10-06 03:35:00
11:15 PM,35.6,26.6,70,30.01,10.0,West,17.3,21.9,N/A,,Clear,270,2012-10-06 04:15:00
11:35 PM,35.6,26.6,70,30.01,10.0,West,11.5,21.9,N/A,,Mostly Cloudy,270,2012-10-06 04:35:00
11:55 PM,35.6,26.6,70,30.00,10.0,West,12.7,21.9,N/A,,Overcast,280,2012-10-06 04:55:00